Tracking 28792 objects as of 25-Apr-2024
HD Live streaming from Space Station
objects crossing your sky now

COSMOS 660

Track COSMOS 660 now!
10-day predictions
COSMOS 660 is classified as:


NORAD ID: 7337
Int'l Code: 1974-044A
Perigee: 377.3 km
Apogee: 1,072.3 km
Inclination: 82.9 °
Period: 99.1 minutes
Semi major axis: 7095 km
RCS: 2.9855 m2 (large)
Launch date: June 18, 1974
Source: Commonwealth of Independent States (former USSR) (CIS)
Launch site: PLESETSK MISSILE AND SPACE COMPLEX (PKMTR)
Your satellite tracking list
Your tracking list is empty




NASA's NSSDC Master Catalog

Two Line Element Set (TLE):
1 07337U 74044A   24115.88066077  .00011202  00000-0  52001-3 0  9991
2 07337  82.9452 220.5090 0489789  11.9044 349.3243 14.52450142527251
Source of the keplerian elements: AFSPC